CW6451 Weather Reports


Display with metric or nautical units.
time (UTC)temp
F
wind
direction
speed
MPH
gust
MPH
rain 1hr
in
rain 24hr
in
rain mn
in
humidity
%
barometer
mb
20260831053046 68 0 1.0 5.0 0.01 0.58 0.16 98 1017.9
20260831051552 68 10 1.0 6.0 0.01 0.58 0.16 98 1017.7
20260831050051 68 278 1.0 3.0 0.13 0.58 0.16 97 1017.6
20260831044604 68 318 0.0 8.0 0.22 0.58 0.15 97 1017.6
20260831043044 69 274 1.0 4.0 0.28 0.58 0.15 97 1017.6
20260831041609 70 269 1.0 11.0 0.34 0.58 0.15 98 1017.6
20260831040101 70 216 0.0 3.0 0.26 0.44 0.01 97 1017.8
20260831034556 70 0 0.0 0.0 0.34 0.36 0.36 97 1017.8
20260831033051 70 0 0.0 0.0 0.29 0.30 0.30 96 1017.8
20260831031545 70 0 0.0 2.0 0.23 0.24 0.24 96 1018.0
20260831030051 70 0 0.0 2.0 0.17 0.17 0.17 95 1017.8
20260831024553 70 0 0.0 3.0 0.02 0.02 0.02 94 1018.1
20260831023049 70 209 0.0 2.0 0.01 0.01 0.01 93 1018.0
20260831021546 70 215 1.0 5.0 0.01 0.01 0.01 93 1018.0
20260831020045 70 252 1.0 7.0 0.00 0.00 0.00 93 1018.3
20260831014548 70 247 1.0 9.0 0.00 0.00 0.00 92 1018.1
20260831013052 71 236 3.0 10.0 0.00 0.00 0.00 91 1018.2
20260831011548 71 231 5.0 13.0 0.00 0.00 0.00 89 1018.1
20260831010049 71 221 4.0 12.0 0.00 0.00 0.00 89 1018.2
20260831004547 71 251 5.0 16.0 0.00 0.00 0.00 88 1017.9
20260831003044 71 217 3.0 12.0 0.00 0.00 0.00 88 1018.0
20260831001551 71 215 4.0 14.0 0.00 0.00 0.00 88 1018.0
20260831000049 71 229 4.0 10.0 0.00 0.00 0.00 89 1017.9
20260830234558 71 216 4.0 9.0 0.00 0.00 0.00 90 1017.7
20260830233044 71 246 4.0 12.0 0.00 0.00 0.00 90 1017.7
20260830231559 71 231 3.0 13.0 0.00 0.00 0.00 90 1017.6
20260830230049 71 216 3.0 12.0 0.00 0.00 0.00 90 1017.7
20260830224554 71 254 4.0 12.0 0.00 0.00 0.00 89 1017.7
20260830223057 72 225 3.0 12.0 0.00 0.00 0.00 89 1017.9
20260830221559 72 244 2.0 12.0 0.00 0.00 0.00 88 1017.9
20260830220050 72 240 3.0 10.0 0.00 0.00 0.00 88 1018.1
20260830214557 72 233 4.0 10.0 0.00 0.00 0.00 88 1018.2
20260830213051 73 196 5.0 17.0 0.00 0.00 0.00 86 1018.2
20260830211545 73 204 3.0 9.0 0.00 0.00 0.00 81 1018.3
20260830210047 73 200 3.0 10.0 0.00 0.00 0.00 79 1018.2
20260830204548 74 178 3.0 11.0 0.00 0.00 0.00 77 1018.3
20260830203047 75 230 5.0 15.0 0.00 0.00 0.00 74 1018.4
20260830201547 77 211 3.0 8.0 0.00 0.00 0.00 72 1018.3
20260830200043 79 234 3.0 10.0 0.00 0.00 0.00 70 1018.3
20260830194551 80 210 4.0 12.0 0.00 0.00 0.00 68 1018.7
20260830193049 80 221 2.0 12.0 0.00 0.00 0.00 67 1018.9
20260830191552 79 302 2.0 10.0 0.00 0.00 0.00 63 1019.2
20260830190051 80 197 4.0 11.0 0.00 0.00 0.00 59 1019.2
20260830184545 80 215 3.0 10.0 0.00 0.00 0.00 61 1019.2
20260830183046 82 112 4.0 11.0 0.00 0.00 0.00 64 1019.5
20260830181549 80 239 4.0 10.0 0.00 0.00 0.00 65 1019.4
20260830180058 79 188 3.0 16.0 0.00 0.00 0.00 68 1019.8
20260830174554 81 205 3.0 11.0 0.00 0.00 0.00 65 1019.9
20260830173059 80 209 4.0 14.0 0.00 0.00 0.00 68 1020.1
20260830171555 80 207 4.0 11.0 0.00 0.00 0.00 70 1020.1
20260830170047 80 186 4.0 10.0 0.00 0.00 0.00 70 1020.2
20260830164604 80 233 6.0 11.0 0.00 0.00 0.00 68 1020.3
20260830163053 80 0 3.0 8.0 0.00 0.00 0.00 69 1020.2
20260830161548 79 277 3.0 9.0 0.00 0.00 0.00 71 1020.1
20260830160048 79 0 3.0 10.0 0.00 0.00 0.00 68 1020.4
20260830154546 78 207 4.0 13.0 0.00 0.00 0.00 74 1020.5
20260830153054 77 259 2.0 8.0 0.00 0.00 0.00 71 1020.8
20260830151605 76 273 2.0 10.0 0.00 0.00 0.00 74 1021.0
20260830150045 75 219 3.0 8.0 0.00 0.00 0.00 72 1021.1
20260830144554 74 206 2.0 8.0 0.00 0.00 0.00 73 1021.3
20260830143048 73 211 2.0 7.0 0.00 0.00 0.00 75 1021.4
20260830141553 72 198 1.0 7.0 0.00 0.00 0.00 76 1021.4
20260830140053 72 277 3.0 7.0 0.00 0.00 0.00 77 1021.4
20260830134549 71 244 2.0 7.0 0.00 0.00 0.00 81 1021.6
20260830133100 70 232 1.0 4.0 0.00 0.00 0.00 81 1021.7
20260830131553 69 223 2.0 4.0 0.00 0.00 0.00 82 1021.9
20260830130049 69 194 2.0 6.0 0.00 0.00 0.00 83 1022.1
20260830124552 68 210 1.0 6.0 0.00 0.00 0.00 87 1022.2
20260830123045 67 0 0.0 4.0 0.00 0.00 0.00 90 1022.1
20260830121549 67 243 1.0 5.0 0.00 0.00 0.00 91 1022.3
20260830120046 67 207 1.0 6.0 0.00 0.00 0.00 93 1022.2
20260830114556 66 211 1.0 5.0 0.00 0.00 0.00 94 1022.0
20260830113051 66 223 1.0 4.0 0.00 0.00 0.00 94 1022.1
20260830111546 65 253 0.0 5.0 0.00 0.00 0.00 94 1022.1
20260830110048 65 0 1.0 3.0 0.00 0.00 0.00 94 1022.0
20260830104556 64 224 1.0 4.0 0.00 0.00 0.00 94 1022.2
20260830103049 64 0 1.0 4.0 0.00 0.00 0.00 94 1022.1
20260830101547 64 0 0.0 7.0 0.00 0.00 0.00 94 1022.2
20260830100046 63 0 0.0 5.0 0.00 0.00 0.00 95 1022.1
20260830094551 63 287 1.0 6.0 0.00 0.00 0.00 95 1022.2
20260830093046 63 239 0.0 3.0 0.00 0.00 0.00 95 1022.1
20260830091545 63 0 1.0 2.0 0.00 0.00 0.00 96 1022.1
20260830084547 63 264 0.0 2.0 0.00 0.00 0.00 96 1022.5
20260830083049 63 204 0.0 3.0 0.00 0.00 0.00 95 1022.6
20260830081551 63 0 0.0 3.0 0.00 0.00 0.00 95 1022.8
20260830080047 63 0 0.0 2.0 0.00 0.00 0.00 95 1022.8
20260830074550 63 235 0.0 4.0 0.00 0.00 0.00 95 1022.8
20260830073107 63 0 1.0 4.0 0.00 0.00 0.00 95 1022.6
20260830071549 63 0 0.0 3.0 0.00 0.00 0.00 95 1022.3
20260830070046 63 0 1.0 4.0 0.00 0.00 0.00 95 1022.3
20260830064545 63 207 0.0 4.0 0.00 0.00 0.00 95 1022.2
20260830063051 63 203 0.0 4.0 0.00 0.00 0.00 94 1022.2
20260830061547 63 0 0.0 3.0 0.00 0.00 0.00 93 1022.3
20260830060046 63 0 0.0 4.0 0.00 0.00 0.00 93 1022.3
20260830054603 63 0 1.0 4.0 0.00 0.00 0.00 93 1022.3